Location: Bluff Heights
(33.7692°N, 118.1592°W)
Time: 23:14:15
(UTC+00:00)

Meteor 1-24 Rocket - Pass Details

Date: 29 October 2020
Orbit: 791 x 927 km, 81.3° (Epoch: 29 November)

Event Time Altitude Azimuth Distance (km) Brightness Sun altitude
Rises 12:05:48 0° 181° (S) 3,355 6.8 -26.3°
Reaches altitude 10° 12:08:10 10° 179° (S) 2,444 6.1 -25.8°
Maximum altitude 12:13:41 72° 95° (E) 905 3.9 -24.6°
Drops below altitude 10° 12:19:27 10° 13° (NNE) 2,551 6.3 -23.4°
Sets 12:21:58 0° 11° (N) 3,513 7.0 -22.9°
